Overview Statistics Trail Chart Weather Telemetry Raw packets
 

This is the latest recevied weather packets stored in our database for station/object N0HOT. If no packets are shown the sender has not sent any weather packets the latest 10 day(s).

<< 40 41 42 43 44 45 46 >>
Time Temp. Humidity Pressure Rain* Wind** Luminosity Snow
1788385820 31.67° C 53% 1011.1 hPa 0 mm - 71 W/m² -
1788385520 32.22° C 50% 1011.1 hPa 0 mm - 150 W/m² -
1788385219 31.67° C 50% 1010.8 hPa 0 mm - 358 W/m² -
1788384915 31.67° C 52% 1010.8 hPa 0 mm - 356 W/m² -
1788384614 31.67° C 55% 1010.8 hPa 0 mm - 401 W/m² -
1788384310 32.22° C 53% 1010.8 hPa 0 mm - 436 W/m² -
1788384006 32.22° C 50% 1011.1 hPa 0 mm - 461 W/m² -
1788383702 32.22° C 54% 1011.1 hPa 0 mm - 452 W/m² -
1788383396 32.78° C 52% 1011.1 hPa 0 mm - 447 W/m² -
1788383091 32.22° C 54% 1011.1 hPa 0 mm - 428 W/m² -
1788382790 32.22° C 53% 1011.1 hPa 0 mm - 473 W/m² -
1788382490 32.22° C 53% 1011.1 hPa 0 mm - 482 W/m² -
1788382185 32.22° C 52% 1011.1 hPa 0 mm - 518 W/m² -
1788381885 32.22° C 52% 1011.1 hPa 0 mm - 540 W/m² -
1788381581 31.67° C 54% 1011.5 hPa 0 mm - 555 W/m² -
1788381276 31.67° C 53% 1011.1 hPa 0 mm - 532 W/m² -
1788380975 31.67° C 55% 1011.1 hPa 0 mm - 554 W/m² -
1788380671 31.67° C 55% 1011.5 hPa 0 mm - 562 W/m² -
1788380368 31.67° C 52% 1011.5 hPa 0 mm - 565 W/m² -
1788380063 31.67° C 53% 1011.5 hPa 0 mm - 555 W/m² -
1788379763 31.67° C 53% 1011.5 hPa 0 mm - 573 W/m² -
1788379458 31.11° C 52% 1011.1 hPa 0 mm - 586 W/m² -
1788379153 31.11° C 55% 1011.8 hPa 0 mm - 621 W/m² -
1788378848 31.11° C 55% 1011.5 hPa 0 mm - 598 W/m² -
1788378542 30.56° C 55% 1011.8 hPa 0 mm - 632 W/m² -

* Rain latest hour (hover to see other rain measurements)
** Current wind speed in m/s (hover to see current wind gust speed)